Location: Brushy Sky High
(38.9182°N, 122.5055°W)
Time: 14:20:25
(UTC+00:00)

Daily predictions for brighter satellites

Satellite Brightness Start Highest point End
(mag) Time Altitude Azimuth Time Altitude Azimuth Time Altitude Azimuth
STARLINK-1017 3.4 12:04:11 79° WSW 12:04:25 85° NW 12:08:34 10° NE
Cosmos 1908 Rocket 3.4 12:00:44 10° N 12:05:07 77° W 12:06:18 47° S
Lacrosse 5 rocket 2.5 12:05:34 27° NNW 12:05:34 27° NNW 12:08:36 10° NNE
STARLINK-81 3.3 12:06:44 77° W 12:06:58 82° NW 12:11:00 10° NE
STARLINK-54 3.4 12:08:32 69° WNW 12:08:48 72° NW 12:12:50 10° NE
STARLINK-77 3.4 12:09:55 70° W 12:10:16 77° NW 12:14:19 10° NE
CZ-2C R/B 2.8 12:05:55 10° NNE 12:10:27 55° E 12:14:43 11° S
STARLINK-25 3.4 12:11:31 66° W 12:11:56 74° NW 12:15:58 10° NE
STARLINK-71 3.5 12:13:20 59° WNW 12:13:47 65° NW 12:17:48 10° NE
STARLINK-79 3.5 12:14:41 59° W 12:15:14 69° NW 12:19:16 10° NE
Cosmos 2333 Rocket 2.4 12:09:57 10° NW 12:15:17 45° WSW 12:20:37 10° S
Okean 1-7 2.9 12:15:09 44° SSW 12:16:24 69° W 12:20:46 10° N
GPS 2-04 Rocket1 3.0 12:16:50 46° S 12:16:50 46° S 12:20:24 10° ESE
STARLINK-78 3.5 12:16:19 56° W 12:16:56 67° NW 12:20:57 10° NE
STARLINK-57 3.6 12:18:01 52° W 12:18:41 61° NW 12:22:41 10° NE
STARLINK-1048 3.7 12:18:31 50° W 12:19:21 64° NW 12:23:28 10° NE
STARLINK-1029 4.1 12:19:46 31° NNW 12:19:46 31° NNW 12:22:23 10° NNE
Cosmos 1515 4.0 12:17:04 19° S 12:19:38 65° E 12:23:25 10° NNE
STARLINK-49 3.6 12:19:27 51° W 12:20:13 63° NW 12:24:13 10° NE
deb Chang Zheng 4 4.2 12:17:00 10° N 12:20:55 35° WNW 12:21:00 35° WNW
STARLINK-27 3.7 12:21:04 48° W 12:21:53 61° NW 12:25:52 10° NE
Cosmos 1743 2.6 12:18:29 10° NNW 12:22:21 66° W 12:24:44 22° S
STARLINK-74 3.7 12:22:38 46° W 12:23:31 59° NW 12:27:30 10° NE
IDEFIX/ARIANE 42P 3.1 12:19:08 10° N 12:23:52 37° WNW 12:25:10 32° W
STARLINK-1023 3.9 12:23:04 42° W 12:24:06 54° NW 12:28:14 10° NE
STARLINK-1049 3.8 12:23:19 44° W 12:24:20 59° NW 12:28:26 10° NE
Okean 1 3.4 12:23:56 45° WSW 12:24:38 52° W 12:28:31 10° N
STARLINK-39 3.7 12:24:14 43° W 12:25:11 57° NW 12:29:10 10° NE
STARLINK-31 3.8 12:25:50 41° W 12:26:51 54° NW 12:30:49 10° NE
USA 238 DEB 3.8 12:21:55 17° SSW 12:27:11 76° ESE 12:34:01 10° NE
USA 238 3.8 12:22:00 17° SSW 12:27:19 75° ESE 12:34:08 10° NE
CZ-4B R/B 2.4 12:29:01 31° WNW 12:29:01 31° WNW 12:31:21 10° NNW
STARLINK-69 3.9 12:27:38 38° W 12:28:42 49° NW 12:32:38 10° NE
STARLINK-1051 3.9 12:28:06 38° W 12:29:20 53° NW 12:33:24 10° NE
Cosmos 1975 2.9 12:26:07 10° N 12:30:08 79° E 12:34:09 10° S
STARLINK-21 3.9 12:29:03 37° W 12:30:12 51° NW 12:34:09 10° NE
Cosmos 1689 Rocket 1.9 12:28:24 13° S 12:31:02 79° WSW 12:34:03 10° NNW
STARLINK-45 4.1 12:30:53 34° W 12:32:05 45° NW 12:35:58 10° NE
SL-4 R/B 2.0 12:29:23 19° NW 12:32:16 88° NE 12:36:38 10° SE
STARLINK-70 4.1 12:32:22 33° W 12:33:39 45° NW 12:37:31 10° NE
STARLINK-76 4.0 12:33:48 32° W 12:35:10 46° NW 12:39:03 10° NE
PAYLOAD A 4.1 12:31:00 10° N 12:36:24 67° WNW 12:41:38 10° SSW
STARLINK-23 4.1 12:35:24 31° W 12:36:50 45° NW 12:40:43 10° NE
Meteor 2-4 Rocket 4.2 12:31:56 10° S 12:37:47 70° E 12:43:41 10° NNE
STARLINK-32 4.1 12:37:01 30° W 12:38:31 43° NW 12:42:23 10° NE
STARLINK-1028 4.1 12:37:39 29° W 12:39:18 45° NW 12:43:18 10° NE
STARLINK-40 4.2 12:38:36 28° W 12:40:10 42° NW 12:44:01 10° NE
STARLINK-44 4.2 12:40:11 27° W 12:41:49 41° NW 12:45:39 10° NE
MSX 4.3 12:37:18 10° N 12:42:40 41° WNW 12:46:41 17° SW
USA 234 3.6 12:37:06 10° SSE 12:43:07 39° SW 12:49:11 10° WNW
Cosmos 2237 Rocket 2.1 12:37:50 10° NNW 12:43:32 82° WSW 12:49:12 10° SSE
STARLINK-37 4.3 12:41:54 25° W 12:43:37 38° NNW 12:47:24 10° NE
ATLAS CENTAUR R/B -0.2 12:43:53 80° S 12:43:57 84° SE 12:45:56 10° NE
STARLINK-1007 4.3 12:42:02 25° W 12:43:57 41° NNW 12:47:56 10° NE
STARLINK-1021 4.3 12:42:26 25° W 12:44:18 41° NW 12:48:15 10° NE
STARLINK-36 4.3 12:43:20 25° W 12:45:08 39° NNW 12:48:56 10° NE
STARLINK-68 4.5 12:45:10 23° W 12:47:01 35° NNW 12:50:45 10° NE
Cosmos 389 Rocket 2.6 12:43:26 10° S 12:47:01 80° E 12:50:37 10° NNE
STARLINK-63 4.5 12:46:39 22° W 12:48:35 35° NNW 12:52:19 10° NE
ADEOS 3.7 12:43:59 10° N 12:49:03 52° WNW 12:54:05 10° SSW
STARLINK-1019 4.4 12:47:13 22° W 12:49:19 38° NNW 12:53:12 10° NE
Cosmos 2298 Rocket 4.3 12:46:10 17° SW 12:50:06 48° WNW 12:55:16 10° N
STARLINK-35 4.4 12:48:08 22° W 12:50:08 36° NNW 12:53:52 10° NE
STARLINK-51 4.5 12:49:43 21° W 12:51:47 35° NNW 12:55:31 10° NE
Cosmos 1484 Rocket 3.5 12:48:13 10° NNE 12:52:02 55° E 12:55:45 10° S
Cosmos 2150 Rocket 4.3 12:48:40 14° SW 12:53:02 50° WNW 12:58:20 10° N
STARLINK-1031 4.0 12:52:17 14° SW 12:55:47 62° SE 12:59:54 10° NE
Nadezhda 4 Rocket 4.0 12:49:51 10° S 12:56:09 89° W 13:02:32 10° N
STARLINK-1060 4.2 12:52:53 12° SSW 12:56:32 55° SE 13:00:36 10° ENE
NOSS 3-2 (A) 3.3 12:51:46 13° SW 12:56:51 72° NW 13:03:12 10° NNE
H-2A R/B 2.8 12:52:53 10° NNE 12:57:03 66° E 13:01:03 10° S
Cosmos 2219 3.8 12:53:47 17° WSW 12:57:45 38° WNW 13:03:05 10° N
CZ-4B R/B 3.3 12:53:59 10° NNE 12:58:10 72° ESE 13:02:31 10° S
Cosmos 2279 Rocket 4.2 12:52:28 10° NNW 12:58:24 48° W 13:04:20 10° SSW
NOSS 0 Rocket 4.2 12:54:20 10° NW 13:00:04 42° WSW 13:05:46 10° S
STARLINK-1030 4.0 12:57:39 11° SW 13:01:29 62° SE 13:05:35 10° NE
Cosmos 2297 Rocket 2.6 12:57:25 12° SW 13:02:20 46° WNW 13:07:47 10° N
Cosmos 1048 Rocket 4.0 12:57:31 10° NNW 13:02:52 87° WSW 13:08:13 10° SSE
Meteor 2-9 Rocket 4.3 12:57:44 10° NNW 13:03:30 60° W 13:09:14 10° S
ATLAS 5 CENTAUR R/B 2.6 12:58:49 10° SSW 13:05:06 51° SE 13:07:39 10° NE
Cosmos 1125 Rocket 3.5 13:00:49 10° SSW 13:06:04 66° WNW 13:11:23 10° NNE
STARLINK-1020 3.9 13:02:27 10° SW 13:06:29 69° SE 13:10:36 10° NE
STARLINK-1052 3.7 13:07:20 10° SW 13:11:28 76° SE 13:15:36 10° NE
COSMOS 2428 4.2 13:14:40 10° WNW 13:17:37 14° W 13:20:33 10° SW
STARLINK-1033 3.6 13:17:14 10° SW 13:21:23 89° NW 13:25:32 10° NE
Cosmos 1900 4.4 13:16:37 10° SW 13:21:27 61° WNW 13:26:17 10° NNE
NOSS 3-2 (C) 3.4 13:17:03 10° SW 13:22:41 75° NW 13:29:04 10° NNE
Okean 1 Rocket 4.3 13:20:05 10° N 13:24:17 47° E 13:28:30 10° SSE
CENTAUR R/B 2.5 13:20:30 10° SSW 13:26:14 87° NW 13:33:01 10° NNE
PSLV R/B 4.1 13:22:23 10° NNE 13:26:32 78° ESE 13:30:37 10° S
SeaSat 1 3.6 13:23:24 10° SSW 13:27:05 21° WSW 13:30:47 10° WNW
Cosmos 2227 Rocket 3.0 13:22:27 10° WSW 13:27:29 33° WNW 13:32:34 10° N
Cosmos 2221 Rocket 4.5 13:24:38 10° SW 13:28:33 30° WNW 13:32:29 10° NNW
